Time,TemperatureF,DewpointF,PressureIn,WindDirection,WindDirectionDegrees,WindSpeedMPH,WindSpeedGustMPH,Humidity,HourlyPrecipIn,Conditions,Clouds,dailyrainin,SoftwareType,DateUTC
2013-08-15 00:01:00,60.4,49.8,29.99,SW,225,0.0,0.0,68,0.00,CLR,CLR,0.00,WeatherDisplay:10.36,2013-08-15 04:01:00,
2013-08-15 00:02:00,60.2,49.6,29.99,SW,225,0.0,0.0,68,0.00,CLR,CLR,0.00,WeatherDisplay:10.36,2013-08-15 04:02:00,
2013-08-15 00:03:00,60.2,50.0,29.99,SW,225,0.0,0.0,69,0.00,CLR,CLR,0.00,WeatherDisplay:10.36,2013-08-15 04:03:00,
2013-08-15 00:05:00,59.9,50.1,29.99,SW,225,0.0,0.0,70,0.00,CLR,CLR,0.00,WeatherDisplay:10.36,2013-08-15 04:05:00,
2013-08-15 00:10:00,59.6,50.6,29.99,SW,225,0.0,0.0,72,0.00,CLR,CLR,0.00,WeatherDisplay:10.36,2013-08-15 04:10:00,
2013-08-15 00:15:00,59.2,50.5,29.99,SW,225,0.0,0.0,73,0.00,CLR,CLR,0.00,WeatherDisplay:10.36,2013-08-15 04:15:00,
2013-08-15 00:20:00,58.9,50.3,29.99,SW,225,0.0,0.0,73,0.00,CLR,CLR,0.00,WeatherDisplay:10.36,2013-08-15 04:20:00,
2013-08-15 00:25:00,58.7,50.8,29.99,SW,225,0.0,0.0,75,0.00,CLR,CLR,0.00,WeatherDisplay:10.36,2013-08-15 04:25:00,
2013-08-15 00:30:00,58.7,50.4,30.00,SW,225,0.0,0.0,74,0.00,CLR,CLR,0.00,WeatherDisplay:10.36,2013-08-15 04:30:00,
2013-08-15 00:36:00,58.7,50.1,30.00,SW,225,0.0,0.0,73,0.00,CLR,CLR,0.00,WeatherDisplay:10.36,2013-08-15 04:36:00,
2013-08-15 00:41:00,58.7,50.1,30.00,SW,225,0.0,0.0,73,0.00,CLR,CLR,0.00,WeatherDisplay:10.36,2013-08-15 04:41:00,
2013-08-15 00:46:00,58.6,50.3,30.00,SW,225,0.0,0.0,74,0.00,CLR,CLR,0.00,WeatherDisplay:10.36,2013-08-15 04:46:00,
2013-08-15 00:51:00,58.3,50.4,30.00,SW,225,0.0,0.0,75,0.00,CLR,CLR,0.00,WeatherDisplay:10.36,2013-08-15 04:51:00,
2013-08-15 00:56:00,58.0,50.5,30.00,SW,225,0.0,0.0,76,0.00,CLR,CLR,0.00,WeatherDisplay:10.36,2013-08-15 04:56:00,
2013-08-15 01:01:00,57.8,50.6,30.00,SW,225,0.0,0.0,77,0.00,CLR,CLR,0.00,WeatherDisplay:10.36,2013-08-15 05:01:00,
2013-08-15 01:06:00,57.6,50.8,30.00,SW,225,0.0,0.0,78,0.00,CLR,CLR,0.00,WeatherDisplay:10.36,2013-08-15 05:06:00,
2013-08-15 01:11:00,57.5,50.7,30.00,SW,225,0.0,0.0,78,0.00,CLR,CLR,0.00,WeatherDisplay:10.36,2013-08-15 05:11:00,
2013-08-15 01:16:00,57.3,50.5,30.00,SW,225,0.0,0.0,78,0.00,CLR,CLR,0.00,WeatherDisplay:10.36,2013-08-15 05:16:00,
2013-08-15 01:21:00,57.3,50.8,30.00,SW,225,0.0,0.0,79,0.00,CLR,CLR,0.00,WeatherDisplay:10.36,2013-08-15 05:21:00,
2013-08-15 01:26:00,57.3,50.8,30.00,SW,225,0.0,0.0,79,0.00,CLR,CLR,0.00,WeatherDisplay:10.36,2013-08-15 05:26:00,
2013-08-15 01:32:00,57.3,50.8,30.00,SW,225,0.0,0.0,79,0.00,CLR,CLR,0.00,WeatherDisplay:10.36,2013-08-15 05:32:00,
2013-08-15 01:37:00,57.2,50.7,30.01,SW,225,0.0,0.0,79,0.00,CLR,CLR,0.00,WeatherDisplay:10.36,2013-08-15 05:37:00,
2013-08-15 01:42:00,57.0,50.5,30.01,SW,225,0.0,0.0,79,0.00,CLR,CLR,0.00,WeatherDisplay:10.36,2013-08-15 05:42:00,
2013-08-15 01:47:00,56.9,50.5,30.00,SW,225,0.0,0.0,79,0.00,CLR,CLR,0.00,WeatherDisplay:10.36,2013-08-15 05:47:00,
2013-08-15 01:52:00,56.9,50.5,30.01,SW,225,0.0,0.0,79,0.00,CLR,CLR,0.00,WeatherDisplay:10.36,2013-08-15 05:52:00,
2013-08-15 01:57:00,56.7,50.3,30.01,SW,225,0.0,0.0,79,0.00,CLR,CLR,0.00,WeatherDisplay:10.36,2013-08-15 05:57:00,
2013-08-15 02:03:00,56.7,50.3,30.01,SW,225,0.0,0.0,79,0.00,CLR,CLR,0.00,WeatherDisplay:10.36,2013-08-15 06:03:00,
2013-08-15 02:08:00,56.6,50.2,30.01,SW,225,0.0,0.0,79,0.00,CLR,CLR,0.00,WeatherDisplay:10.36,2013-08-15 06:08:00,
2013-08-15 02:13:00,56.5,50.4,30.01,SW,225,0.0,0.0,80,0.00,CLR,CLR,0.00,WeatherDisplay:10.36,2013-08-15 06:13:00,
2013-08-15 02:18:00,56.3,50.5,30.01,SW,225,0.0,0.0,81,0.00,CLR,CLR,0.00,WeatherDisplay:10.36,2013-08-15 06:18:00,
2013-08-15 02:23:00,56.2,50.8,30.01,SW,225,0.0,0.0,82,0.00,CLR,CLR,0.00,WeatherDisplay:10.36,2013-08-15 06:23:00,
2013-08-15 02:29:00,56.2,50.8,30.01,SW,225,0.0,0.0,82,0.00,CLR,CLR,0.00,WeatherDisplay:10.36,2013-08-15 06:29:00,
2013-08-15 02:34:00,56.0,50.3,30.01,SW,225,0.0,0.0,81,0.00,CLR,CLR,0.00,WeatherDisplay:10.36,2013-08-15 06:34:00,
2013-08-15 02:39:00,55.9,50.5,30.01,SW,225,0.0,0.0,82,0.00,CLR,CLR,0.00,WeatherDisplay:10.36,2013-08-15 06:39:00,
2013-08-15 02:44:00,55.7,50.6,30.01,SW,225,0.0,0.0,83,0.00,CLR,CLR,0.00,WeatherDisplay:10.36,2013-08-15 06:44:00,
2013-08-15 02:49:00,55.6,50.8,30.01,SW,225,0.0,0.0,84,0.00,CLR,CLR,0.00,WeatherDisplay:10.36,2013-08-15 06:49:00,
2013-08-15 02:54:00,55.4,50.6,30.01,SW,225,0.0,0.0,84,0.00,CLR,CLR,0.00,WeatherDisplay:10.36,2013-08-15 06:54:00,
2013-08-15 02:59:00,55.1,50.4,30.01,SW,225,0.0,0.0,84,0.00,CLR,CLR,0.00,WeatherDisplay:10.36,2013-08-15 06:59:00,
2013-08-15 03:04:00,55.1,50.4,30.01,SW,225,0.0,0.0,84,0.00,CLR,CLR,0.00,WeatherDisplay:10.36,2013-08-15 07:04:00,
2013-08-15 03:10:00,55.0,50.3,30.01,SW,225,0.0,0.0,84,0.00,CLR,CLR,0.00,WeatherDisplay:10.36,2013-08-15 07:10:00,
2013-08-15 03:15:00,54.9,50.5,30.01,SW,225,0.0,0.0,85,0.00,CLR,CLR,0.00,WeatherDisplay:10.36,2013-08-15 07:15:00,
2013-08-15 03:20:00,54.8,50.4,30.01,SW,225,0.0,0.0,85,0.00,CLR,CLR,0.00,WeatherDisplay:10.36,2013-08-15 07:20:00,
2013-08-15 03:25:00,54.7,50.6,30.01,SW,225,0.0,0.0,86,0.00,CLR,CLR,0.00,WeatherDisplay:10.36,2013-08-15 07:25:00,
2013-08-15 03:30:00,54.5,50.4,30.01,SW,225,0.0,0.0,86,0.00,CLR,CLR,0.00,WeatherDisplay:10.36,2013-08-15 07:30:00,
2013-08-15 03:35:00,54.5,50.7,30.01,SW,225,0.0,0.0,87,0.00,CLR,CLR,0.00,WeatherDisplay:10.36,2013-08-15 07:35:00,
2013-08-15 03:40:00,54.5,50.7,30.01,SW,225,0.0,0.0,87,0.00,CLR,CLR,0.00,WeatherDisplay:10.36,2013-08-15 07:40:00,
2013-08-15 03:46:00,54.4,50.6,30.02,SW,225,0.0,0.0,87,0.00,CLR,CLR,0.00,WeatherDisplay:10.36,2013-08-15 07:46:00,
2013-08-15 03:51:00,54.4,50.9,30.02,SW,225,0.0,0.0,88,0.00,CLR,CLR,0.00,WeatherDisplay:10.36,2013-08-15 07:51:00,
2013-08-15 03:56:00,54.5,51.0,30.02,SW,225,0.0,0.0,88,0.00,CLR,CLR,0.00,WeatherDisplay:10.36,2013-08-15 07:56:00,
2013-08-15 04:01:00,54.4,51.2,30.02,SW,225,0.0,0.0,89,0.00,CLR,CLR,0.00,WeatherDisplay:10.36,2013-08-15 08:01:00,
2013-08-15 04:06:00,54.2,51.0,30.02,SW,225,0.0,0.0,89,0.00,CLR,CLR,0.00,WeatherDisplay:10.36,2013-08-15 08:06:00,
2013-08-15 04:11:00,54.1,50.6,30.02,SW,225,0.0,0.0,88,0.00,CLR,CLR,0.00,WeatherDisplay:10.36,2013-08-15 08:11:00,
2013-08-15 04:16:00,54.1,50.6,30.02,SW,225,0.0,0.0,88,0.00,CLR,CLR,0.00,WeatherDisplay:10.36,2013-08-15 08:16:00,
2013-08-15 04:22:00,53.9,50.7,30.01,SW,225,0.0,0.0,89,0.00,CLR,CLR,0.00,WeatherDisplay:10.36,2013-08-15 08:22:00,
2013-08-15 04:27:00,53.8,50.6,30.01,SW,225,0.0,0.0,89,0.00,CLR,CLR,0.00,WeatherDisplay:10.36,2013-08-15 08:27:00,
2013-08-15 04:32:00,53.6,50.4,30.02,SW,225,0.0,0.0,89,0.00,CLR,CLR,0.00,WeatherDisplay:10.36,2013-08-15 08:32:00,
2013-08-15 04:37:00,53.5,50.3,30.02,SW,225,0.0,0.0,89,0.00,CLR,CLR,0.00,WeatherDisplay:10.36,2013-08-15 08:37:00,
2013-08-15 04:42:00,53.3,50.1,30.02,SW,225,0.0,0.0,89,0.00,CLR,CLR,0.00,WeatherDisplay:10.36,2013-08-15 08:42:00,
2013-08-15 04:47:00,53.2,50.0,30.03,SW,225,0.0,0.0,89,0.00,CLR,CLR,0.00,WeatherDisplay:10.36,2013-08-15 08:47:00,
2013-08-15 04:53:00,53.2,50.3,30.03,SW,225,0.0,0.0,90,0.00,CLR,CLR,0.00,WeatherDisplay:10.36,2013-08-15 08:53:00,
2013-08-15 04:58:00,53.2,50.3,30.03,SW,225,0.0,0.0,90,0.00,CLR,CLR,0.00,WeatherDisplay:10.36,2013-08-15 08:58:00,
2013-08-15 05:03:00,53.1,50.2,30.03,SW,225,0.0,0.0,90,0.00,CLR,CLR,0.00,WeatherDisplay:10.36,2013-08-15 09:03:00,
2013-08-15 05:08:00,53.2,50.3,30.03,SW,225,0.0,0.0,90,0.00,CLR,CLR,0.00,WeatherDisplay:10.36,2013-08-15 09:08:00,
2013-08-15 05:13:00,53.2,50.6,30.03,SW,225,0.0,0.0,91,0.00,CLR,CLR,0.00,WeatherDisplay:10.36,2013-08-15 09:13:00,
2013-08-15 05:18:00,53.2,50.6,30.03,SW,225,0.0,0.0,91,0.00,CLR,CLR,0.00,WeatherDisplay:10.36,2013-08-15 09:18:00,
2013-08-15 05:24:00,53.1,50.2,30.03,SW,225,0.0,0.0,90,0.00,CLR,CLR,0.00,WeatherDisplay:10.36,2013-08-15 09:24:00,
2013-08-15 05:29:00,52.9,50.3,30.03,SW,225,0.0,0.0,91,0.00,CLR,CLR,0.00,WeatherDisplay:10.36,2013-08-15 09:29:00,
2013-08-15 05:34:00,52.8,50.2,30.03,SW,225,0.0,0.0,91,0.00,CLR,CLR,0.00,WeatherDisplay:10.36,2013-08-15 09:34:00,
2013-08-15 05:39:00,52.9,50.3,30.04,SW,225,0.0,0.0,91,0.00,CLR,CLR,0.00,WeatherDisplay:10.36,2013-08-15 09:39:00,
2013-08-15 05:45:00,52.8,50.2,30.04,SW,225,0.0,0.0,91,0.00,CLR,CLR,0.00,WeatherDisplay:10.36,2013-08-15 09:45:00,
2013-08-15 05:50:00,52.6,50.0,30.04,SW,225,0.0,0.0,91,0.00,CLR,CLR,0.00,WeatherDisplay:10.36,2013-08-15 09:50:00,
2013-08-15 05:55:00,52.6,50.0,30.04,SW,225,0.0,0.0,91,0.00,CLR,CLR,0.00,WeatherDisplay:10.36,2013-08-15 09:55:00,
2013-08-15 06:00:00,52.5,49.9,30.05,SW,225,0.0,0.0,91,0.00,CLR,CLR,0.00,WeatherDisplay:10.36,2013-08-15 10:00:00,
2013-08-15 06:05:00,52.3,49.8,30.05,SW,225,0.0,0.0,91,0.00,CLR,CLR,0.00,WeatherDisplay:10.36,2013-08-15 10:05:00,
2013-08-15 06:10:00,52.3,49.8,30.05,SW,225,0.0,0.0,91,0.00,CLR,CLR,0.00,WeatherDisplay:10.36,2013-08-15 10:10:00,
2013-08-15 06:15:00,52.5,50.2,30.05,SW,225,0.0,0.0,92,0.00,CLR,CLR,0.00,WeatherDisplay:10.36,2013-08-15 10:15:00,
2013-08-15 06:21:00,52.5,50.2,30.05,SW,225,0.0,0.0,92,0.00,CLR,CLR,0.00,WeatherDisplay:10.36,2013-08-15 10:21:00,
2013-08-15 06:26:00,52.5,50.2,30.05,SW,225,0.0,0.0,92,0.00,CLR,CLR,0.00,WeatherDisplay:10.36,2013-08-15 10:26:00,
2013-08-15 06:31:00,52.5,50.2,30.05,SW,225,0.0,0.0,92,0.00,CLR,CLR,0.00,WeatherDisplay:10.36,2013-08-15 10:31:00,
2013-08-15 06:36:00,52.3,50.0,30.05,SW,225,0.0,0.0,92,0.00,CLR,CLR,0.00,WeatherDisplay:10.36,2013-08-15 10:36:00,
2013-08-15 06:41:00,52.3,50.0,30.05,SW,225,0.0,0.0,92,0.00,CLR,CLR,0.00,WeatherDisplay:10.36,2013-08-15 10:41:00,
2013-08-15 06:46:00,52.3,50.0,30.05,SW,225,0.0,0.0,92,0.00,CLR,CLR,0.00,WeatherDisplay:10.36,2013-08-15 10:46:00,
2013-08-15 06:51:00,52.3,50.0,30.06,SW,225,0.0,0.0,92,0.00,CLR,CLR,0.00,WeatherDisplay:10.36,2013-08-15 10:51:00,
2013-08-15 06:56:00,52.5,50.2,30.06,SW,225,0.0,0.0,92,0.00,CLR,CLR,0.00,WeatherDisplay:10.36,2013-08-15 10:56:00,
2013-08-15 07:01:00,52.5,50.2,30.06,SW,225,0.0,0.0,92,0.00,CLR,CLR,0.00,WeatherDisplay:10.36,2013-08-15 11:01:00,
2013-08-15 07:06:00,52.6,50.6,30.06,SW,225,0.0,0.0,93,0.00,CLR,CLR,0.00,WeatherDisplay:10.36,2013-08-15 11:06:00,
2013-08-15 07:12:00,52.8,50.8,30.06,SW,225,0.0,0.0,93,0.00,CLR,CLR,0.00,WeatherDisplay:10.36,2013-08-15 11:12:00,
2013-08-15 07:17:00,52.9,50.9,30.06,SW,225,0.0,0.0,93,0.00,CLR,CLR,0.00,WeatherDisplay:10.36,2013-08-15 11:17:00,
2013-08-15 07:22:00,53.2,51.2,30.06,SW,225,0.0,0.0,93,0.00,CLR,CLR,0.00,WeatherDisplay:10.36,2013-08-15 11:22:00,
2013-08-15 07:27:00,53.2,51.2,30.06,SW,225,0.0,0.0,93,0.00,CLR,CLR,0.00,WeatherDisplay:10.36,2013-08-15 11:27:00,
2013-08-15 07:32:00,53.3,51.3,30.06,SW,225,0.0,0.0,93,0.00,CLR,CLR,0.00,WeatherDisplay:10.36,2013-08-15 11:32:00,
2013-08-15 07:37:00,53.5,51.5,30.06,SW,225,0.0,0.0,93,0.00,CLR,CLR,0.00,WeatherDisplay:10.36,2013-08-15 11:37:00,
2013-08-15 07:42:00,53.6,51.6,30.06,SW,225,0.0,0.0,93,0.00,CLR,CLR,0.00,WeatherDisplay:10.36,2013-08-15 11:42:00,
2013-08-15 07:47:00,53.9,51.9,30.06,SW,225,0.0,0.0,93,0.00,CLR,CLR,0.00,WeatherDisplay:10.36,2013-08-15 11:47:00,
2013-08-15 07:53:00,54.2,52.2,30.06,SW,225,0.0,0.0,93,0.00,CLR,CLR,0.00,WeatherDisplay:10.36,2013-08-15 11:53:00,
2013-08-15 07:58:00,54.4,52.1,30.06,SW,225,0.0,0.0,92,0.00,CLR,CLR,0.00,WeatherDisplay:10.36,2013-08-15 11:58:00,
2013-08-15 08:03:00,54.7,52.4,30.06,SW,225,0.0,0.0,92,0.00,CLR,CLR,0.00,WeatherDisplay:10.36,2013-08-15 12:03:00,
2013-08-15 08:08:00,55.0,52.7,30.06,SW,225,0.0,0.0,92,0.00,CLR,CLR,0.00,WeatherDisplay:10.36,2013-08-15 12:08:00,
2013-08-15 08:13:00,55.4,52.8,30.07,SW,225,0.0,0.0,91,0.00,CLR,CLR,0.00,WeatherDisplay:10.36,2013-08-15 12:13:00,
2013-08-15 08:18:00,55.9,53.3,30.07,SW,225,2.3,0.0,91,0.00,CLR,CLR,0.00,WeatherDisplay:10.36,2013-08-15 12:18:00,
2013-08-15 08:23:00,56.3,53.4,30.07,SW,225,0.0,0.0,90,0.00,CLR,CLR,0.00,WeatherDisplay:10.36,2013-08-15 12:23:00,
2013-08-15 08:28:00,56.7,53.5,30.07,SW,225,0.0,0.0,89,0.00,CLR,CLR,0.00,WeatherDisplay:10.36,2013-08-15 12:28:00,
2013-08-15 08:33:00,57.0,53.5,30.07,SW,225,0.0,0.0,88,0.00,CLR,CLR,0.00,WeatherDisplay:10.36,2013-08-15 12:33:00,
2013-08-15 08:38:00,57.3,53.5,30.07,SW,225,0.0,0.0,87,0.00,CLR,CLR,0.00,WeatherDisplay:10.36,2013-08-15 12:38:00,
2013-08-15 08:43:00,57.8,53.0,30.07,SW,225,0.0,0.0,84,0.00,CLR,CLR,0.00,WeatherDisplay:10.36,2013-08-15 12:43:00,
2013-08-15 08:48:00,58.3,53.2,30.07,SW,225,0.0,0.0,83,0.00,CLR,CLR,0.00,WeatherDisplay:10.36,2013-08-15 12:48:00,
2013-08-15 08:53:00,58.6,53.1,30.07,SW,225,0.0,0.0,82,0.00,CLR,CLR,0.00,WeatherDisplay:10.36,2013-08-15 12:53:00,
2013-08-15 08:58:00,58.9,52.4,30.07,SW,225,0.0,0.0,79,0.00,CLR,CLR,0.00,WeatherDisplay:10.36,2013-08-15 12:58:00,
2013-08-15 09:03:00,59.5,52.6,30.07,SW,225,0.0,0.0,78,0.00,CLR,CLR,0.00,WeatherDisplay:10.36,2013-08-15 13:03:00,
2013-08-15 09:08:00,59.9,52.7,30.07,SW,225,0.0,0.0,77,0.00,CLR,CLR,0.00,WeatherDisplay:10.36,2013-08-15 13:08:00,
2013-08-15 09:13:00,60.4,52.8,30.07,SW,225,0.0,0.0,76,0.00,CLR,CLR,0.00,WeatherDisplay:10.36,2013-08-15 13:13:00,
2013-08-15 09:18:00,61.0,53.0,30.07,SW,225,0.0,0.0,75,0.00,CLR,CLR,0.00,WeatherDisplay:10.36,2013-08-15 13:18:00,
2013-08-15 09:24:00,61.5,52.4,30.07,SW,225,0.0,0.0,72,0.00,CLR,CLR,0.00,WeatherDisplay:10.36,2013-08-15 13:24:00,
2013-08-15 09:29:00,61.8,52.7,30.07,SW,225,0.0,0.0,72,0.00,CLR,CLR,0.00,WeatherDisplay:10.36,2013-08-15 13:29:00,
2013-08-15 09:34:00,62.3,52.8,30.07,SW,225,0.0,0.0,71,0.00,CLR,CLR,0.00,WeatherDisplay:10.36,2013-08-15 13:34:00,
2013-08-15 09:39:00,62.7,52.4,30.07,SW,225,0.0,0.0,69,0.00,CLR,CLR,0.00,WeatherDisplay:10.36,2013-08-15 13:39:00,
2013-08-15 09:44:00,63.2,52.5,30.07,SW,225,1.2,0.0,68,0.00,CLR,CLR,0.00,WeatherDisplay:10.36,2013-08-15 13:44:00,
2013-08-15 09:49:00,63.5,52.3,30.07,SW,226,1.0,0.0,67,0.00,CLR,CLR,0.00,WeatherDisplay:10.36,2013-08-15 13:49:00,
2013-08-15 09:54:00,64.0,52.8,30.08,SW,226,0.0,0.0,67,0.00,CLR,CLR,0.00,WeatherDisplay:10.36,2013-08-15 13:54:00,
2013-08-15 09:59:00,64.5,53.3,30.08,SW,226,0.0,0.0,67,0.00,CLR,CLR,0.00,WeatherDisplay:10.36,2013-08-15 13:59:00,
2013-08-15 10:04:00,64.8,53.2,30.08,SW,226,0.0,0.0,66,0.00,CLR,CLR,0.00,WeatherDisplay:10.36,2013-08-15 14:04:00,
2013-08-15 10:09:00,65.0,53.4,30.08,SW,226,0.0,0.0,66,0.00,CLR,CLR,0.00,WeatherDisplay:10.36,2013-08-15 14:09:00,
2013-08-15 10:14:00,65.3,52.8,30.08,SW,226,0.0,0.0,64,0.00,CLR,CLR,0.00,WeatherDisplay:10.36,2013-08-15 14:14:00,
2013-08-15 10:20:00,65.6,52.2,30.08,SW,226,0.0,0.0,62,0.00,CLR,CLR,0.00,WeatherDisplay:10.36,2013-08-15 14:20:00,
2013-08-15 10:25:00,66.1,52.7,30.08,SW,217,2.3,2.3,62,0.00,CLR,CLR,0.00,WeatherDisplay:10.36,2013-08-15 14:25:00,
2013-08-15 10:31:00,66.9,53.0,30.08,SSW,193,1.2,0.0,61,0.00,CLR,CLR,0.00,WeatherDisplay:10.36,2013-08-15 14:31:00,
2013-08-15 10:36:00,67.1,50.9,30.08,SSW,193,0.0,0.0,56,0.00,CLR,CLR,0.00,WeatherDisplay:10.36,2013-08-15 14:36:00,
2013-08-15 10:41:00,67.3,51.5,30.07,SSW,193,0.0,0.0,57,0.00,CLR,CLR,0.00,WeatherDisplay:10.36,2013-08-15 14:41:00,
2013-08-15 10:46:00,67.8,52.0,30.07,WSW,254,0.0,0.0,57,0.00,CLR,CLR,0.00,WeatherDisplay:10.36,2013-08-15 14:46:00,
2013-08-15 10:51:00,68.1,52.3,30.07,WSW,254,0.0,0.0,57,0.00,CLR,CLR,0.00,WeatherDisplay:10.36,2013-08-15 14:51:00,
2013-08-15 10:57:00,68.6,52.8,30.07,WSW,254,0.0,0.0,57,0.00,CLR,CLR,0.00,WeatherDisplay:10.36,2013-08-15 14:57:00,
2013-08-15 11:02:00,69.1,51.8,30.08,WSW,253,1.2,1.2,54,0.00,CLR,CLR,0.00,WeatherDisplay:10.36,2013-08-15 15:02:00,
2013-08-15 11:07:00,69.8,50.9,30.07,SW,221,1.2,0.0,51,0.00,CLR,CLR,0.00,WeatherDisplay:10.36,2013-08-15 15:07:00,
2013-08-15 11:13:00,69.9,49.9,30.07,SW,221,0.0,0.0,49,0.00,CLR,CLR,0.00,WeatherDisplay:10.36,2013-08-15 15:13:00,
2013-08-15 11:19:00,69.9,50.4,30.07,SW,221,0.0,0.0,50,0.00,CLR,CLR,0.00,WeatherDisplay:10.36,2013-08-15 15:19:00,
2013-08-15 11:24:00,69.9,52.0,30.07,SW,221,0.0,0.0,53,0.00,CLR,CLR,0.00,WeatherDisplay:10.36,2013-08-15 15:24:00,
2013-08-15 11:29:00,69.9,52.0,30.07,SW,221,0.0,0.0,53,0.00,CLR,CLR,0.00,WeatherDisplay:10.36,2013-08-15 15:29:00,
2013-08-15 11:34:00,69.9,51.5,30.07,SW,221,0.0,0.0,52,0.00,CLR,CLR,0.00,WeatherDisplay:10.36,2013-08-15 15:34:00,
2013-08-15 11:39:00,70.4,46.2,30.07,SW,231,0.0,0.0,42,0.00,CLR,CLR,0.00,WeatherDisplay:10.36,2013-08-15 15:39:00,
2013-08-15 11:44:00,70.8,46.6,30.07,SW,236,0.0,0.0,42,0.00,CLR,CLR,0.00,WeatherDisplay:10.36,2013-08-15 15:44:00,
2013-08-15 11:49:00,71.1,46.8,30.06,SW,236,0.0,0.0,42,0.00,CLR,CLR,0.00,WeatherDisplay:10.36,2013-08-15 15:49:00,
2013-08-15 11:54:00,71.5,47.2,30.06,South,169,0.0,0.0,42,0.00,CLR,CLR,0.00,WeatherDisplay:10.36,2013-08-15 15:54:00,
2013-08-15 11:59:00,72.1,45.8,30.06,SSW,206,3.5,3.5,39,0.00,CLR,CLR,0.00,WeatherDisplay:10.36,2013-08-15 15:59:00,
2013-08-15 12:04:00,72.5,49.3,30.06,WSW,254,1.0,1.0,44,0.00,CLR,CLR,0.00,WeatherDisplay:10.36,2013-08-15 16:04:00,
2013-08-15 12:09:00,72.7,47.0,30.06,WSW,252,1.2,0.0,40,0.00,CLR,CLR,0.00,WeatherDisplay:10.36,2013-08-15 16:09:00,
2013-08-15 12:15:00,73.0,46.6,30.06,NW,314,0.0,0.0,39,0.00,CLR,CLR,0.00,WeatherDisplay:10.36,2013-08-15 16:15:00,
2013-08-15 12:20:00,73.2,45.4,30.06,SW,233,2.3,2.3,37,0.00,CLR,CLR,0.00,WeatherDisplay:10.36,2013-08-15 16:20:00,
2013-08-15 12:25:00,73.5,45.6,30.06,SW,234,6.0,6.0,37,0.00,CLR,CLR,0.00,WeatherDisplay:10.36,2013-08-15 16:25:00,
2013-08-15 12:30:00,73.9,46.7,30.06,SSW,204,3.5,3.5,38,0.00,CLR,CLR,0.00,WeatherDisplay:10.36,2013-08-15 16:30:00,
2013-08-15 12:36:00,74.2,46.2,30.06,WSW,245,4.0,4.0,37,0.00,CLR,CLR,0.00,WeatherDisplay:10.36,2013-08-15 16:36:00,
2013-08-15 12:41:00,74.6,47.3,30.06,WSW,252,4.6,4.6,38,0.00,CLR,CLR,0.00,WeatherDisplay:10.36,2013-08-15 16:41:00,
2013-08-15 12:46:00,74.9,47.6,30.06,SW,219,2.0,2.0,38,0.00,CLR,CLR,0.00,WeatherDisplay:10.36,2013-08-15 16:46:00,
2013-08-15 12:51:00,75.3,50.0,30.06,SW,219,0.0,0.0,41,0.00,CLR,CLR,0.00,WeatherDisplay:10.36,2013-08-15 16:51:00,
2013-08-15 12:56:00,75.3,50.6,30.05,WSW,244,1.2,1.2,42,0.00,CLR,CLR,0.00,WeatherDisplay:10.36,2013-08-15 16:56:00,
2013-08-15 13:01:00,74.9,47.6,30.05,ESE,117,2.3,2.3,38,0.00,CLR,CLR,0.00,WeatherDisplay:10.36,2013-08-15 17:01:00,
2013-08-15 13:06:00,74.9,48.9,30.05,East,89,1.2,0.0,40,0.00,CLR,CLR,0.00,WeatherDisplay:10.36,2013-08-15 17:06:00,
2013-08-15 13:11:00,74.9,48.3,30.05,North,358,1.2,0.0,39,0.00,CLR,CLR,0.00,WeatherDisplay:10.36,2013-08-15 17:11:00,
2013-08-15 13:17:00,74.9,48.3,30.05,North,358,1.2,0.0,39,0.00,CLR,CLR,0.00,WeatherDisplay:10.36,2013-08-15 17:17:00,
2013-08-15 13:22:00,75.6,46.8,30.05,SSW,203,2.3,2.3,36,0.00,CLR,CLR,0.00,WeatherDisplay:10.36,2013-08-15 17:22:00,
2013-08-15 13:27:00,75.4,48.0,30.04,SW,236,2.3,2.3,38,0.00,CLR,CLR,0.00,WeatherDisplay:10.36,2013-08-15 17:27:00,
2013-08-15 13:32:00,75.4,48.0,30.04,SSW,194,3.5,3.5,38,0.00,CLR,CLR,0.00,WeatherDisplay:10.36,2013-08-15 17:32:00,
2013-08-15 13:37:00,75.4,48.0,30.04,WNW,287,1.2,1.2,38,0.00,CLR,CLR,0.00,WeatherDisplay:10.36,2013-08-15 17:37:00,
2013-08-15 13:43:00,75.4,48.0,30.04,WSW,249,1.0,1.0,38,0.00,CLR,CLR,0.00,WeatherDisplay:10.36,2013-08-15 17:43:00,
2013-08-15 13:48:00,76.0,50.6,30.03,SW,215,0.0,0.0,41,0.00,CLR,CLR,0.00,WeatherDisplay:10.36,2013-08-15 17:48:00,
2013-08-15 13:53:00,76.1,47.9,30.03,NNW,340,3.5,3.5,37,0.00,CLR,CLR,0.00,WeatherDisplay:10.36,2013-08-15 17:53:00,
2013-08-15 13:59:00,75.4,48.0,30.03,SSW,207,1.2,0.0,38,0.00,CLR,CLR,0.00,WeatherDisplay:10.36,2013-08-15 17:59:00,
2013-08-15 14:04:00,75.3,51.3,30.03,SSW,207,0.0,0.0,43,0.00,CLR,CLR,0.00,WeatherDisplay:10.36,2013-08-15 18:04:00,
2013-08-15 14:09:00,75.6,48.9,30.03,SSW,207,0.0,0.0,39,0.00,CLR,CLR,0.00,WeatherDisplay:10.36,2013-08-15 18:09:00,
2013-08-15 14:14:00,76.0,50.6,30.03,SW,214,1.2,1.2,41,0.00,CLR,CLR,0.00,WeatherDisplay:10.36,2013-08-15 18:14:00,
2013-08-15 14:20:00,76.1,50.0,30.03,SSW,210,1.2,0.0,40,0.00,CLR,CLR,0.00,WeatherDisplay:10.36,2013-08-15 18:20:00,
2013-08-15 14:25:00,76.7,53.1,30.03,West,262,6.0,6.0,44,0.00,CLR,CLR,0.00,WeatherDisplay:10.36,2013-08-15 18:25:00,
2013-08-15 14:30:00,77.4,51.2,30.03,SSE,154,1.2,1.2,40,0.00,CLR,CLR,0.00,WeatherDisplay:10.36,2013-08-15 18:30:00,
2013-08-15 14:35:00,77.0,50.1,30.03,SSW,193,0.0,4.0,39,0.00,CLR,CLR,0.00,WeatherDisplay:10.36,2013-08-15 18:35:00,
2013-08-15 14:40:00,76.5,49.0,30.03,SSW,195,0.0,4.0,38,0.00,CLR,CLR,0.00,WeatherDisplay:10.36,2013-08-15 18:40:00,
2013-08-15 14:45:00,76.8,49.3,30.02,South,176,2.0,2.0,38,0.00,CLR,CLR,0.00,WeatherDisplay:10.36,2013-08-15 18:45:00,
2013-08-15 14:50:00,77.2,49.6,30.03,SW,221,3.5,3.5,38,0.00,CLR,CLR,0.00,WeatherDisplay:10.36,2013-08-15 18:50:00,
2013-08-15 14:56:00,77.0,50.1,30.02,SW,221,0.0,0.0,39,0.00,CLR,CLR,0.00,WeatherDisplay:10.36,2013-08-15 18:56:00,
2013-08-15 15:01:00,76.7,49.9,30.01,SW,231,0.0,0.0,39,0.00,CLR,CLR,0.00,WeatherDisplay:10.36,2013-08-15 19:01:00,
2013-08-15 15:06:00,76.3,49.5,30.01,South,187,2.3,2.3,39,0.00,CLR,CLR,0.00,WeatherDisplay:10.36,2013-08-15 19:06:00,
2013-08-15 15:11:00,76.0,51.2,30.02,NNE,20,0.0,0.0,42,0.00,CLR,CLR,0.00,WeatherDisplay:10.36,2013-08-15 19:11:00,
2013-08-15 15:17:00,75.6,50.2,30.02,NNE,21,0.0,0.0,41,0.00,CLR,CLR,0.00,WeatherDisplay:10.36,2013-08-15 19:17:00,
2013-08-15 15:22:00,75.4,52.0,30.02,NNE,21,0.0,0.0,44,0.00,CLR,CLR,0.00,WeatherDisplay:10.36,2013-08-15 19:22:00,
2013-08-15 15:27:00,76.0,47.8,30.01,SW,214,4.6,4.6,37,0.00,CLR,CLR,0.00,WeatherDisplay:10.36,2013-08-15 19:27:00,
2013-08-15 15:32:00,76.1,49.3,30.02,SSW,205,0.0,0.0,39,0.00,CLR,CLR,0.00,WeatherDisplay:10.36,2013-08-15 19:32:00,
2013-08-15 15:37:00,75.6,50.2,30.02,SSW,205,0.0,0.0,41,0.00,CLR,CLR,0.00,WeatherDisplay:10.36,2013-08-15 19:37:00,
2013-08-15 15:42:00,75.1,48.4,30.01,SSW,205,0.0,0.0,39,0.00,CLR,CLR,0.00,WeatherDisplay:10.36,2013-08-15 19:42:00,
2013-08-15 15:48:00,75.3,48.6,30.01,SW,215,0.0,0.0,39,0.00,CLR,CLR,0.00,WeatherDisplay:10.36,2013-08-15 19:48:00,
2013-08-15 15:53:00,75.3,48.6,30.01,SW,217,3.5,0.0,39,0.00,CLR,CLR,0.00,WeatherDisplay:10.36,2013-08-15 19:53:00,
2013-08-15 15:58:00,75.6,47.5,30.01,South,181,2.3,2.3,37,0.00,CLR,CLR,0.00,WeatherDisplay:10.36,2013-08-15 19:58:00,
2013-08-15 16:04:00,76.3,48.8,30.01,SW,216,3.0,3.0,38,0.00,CLR,CLR,0.00,WeatherDisplay:10.36,2013-08-15 20:04:00,
2013-08-15 16:09:00,77.0,48.0,30.01,South,176,4.6,4.6,36,0.00,CLR,CLR,0.00,WeatherDisplay:10.36,2013-08-15 20:09:00,
2013-08-15 16:14:00,77.2,49.6,30.01,SW,231,1.2,1.2,38,0.00,CLR,CLR,0.00,WeatherDisplay:10.36,2013-08-15 20:14:00,
2013-08-15 16:20:00,77.7,48.6,30.01,SSE,152,3.5,3.5,36,0.00,CLR,CLR,0.00,WeatherDisplay:10.36,2013-08-15 20:20:00,
2013-08-15 16:25:00,78.3,49.1,30.01,WSW,254,0.0,0.0,36,0.00,CLR,CLR,0.00,WeatherDisplay:10.36,2013-08-15 20:25:00,
2013-08-15 16:30:00,78.3,49.9,30.01,SW,219,1.2,1.2,37,0.00,CLR,CLR,0.00,WeatherDisplay:10.36,2013-08-15 20:30:00,
2013-08-15 16:36:00,78.3,47.6,30.01,SW,216,3.5,3.5,34,0.00,CLR,CLR,0.00,WeatherDisplay:10.36,2013-08-15 20:36:00,
2013-08-15 16:41:00,78.6,48.7,30.01,SSW,193,3.0,3.0,35,0.00,CLR,CLR,0.00,WeatherDisplay:10.36,2013-08-15 20:41:00,
2013-08-15 16:46:00,78.3,47.6,30.01,South,191,5.8,5.8,34,0.00,CLR,CLR,0.00,WeatherDisplay:10.36,2013-08-15 20:46:00,
2013-08-15 16:51:00,77.9,48.8,30.01,SSW,211,0.0,0.0,36,0.00,CLR,CLR,0.00,WeatherDisplay:10.36,2013-08-15 20:51:00,
2013-08-15 16:56:00,77.6,48.5,30.01,SSW,211,1.0,1.0,36,0.00,CLR,CLR,0.00,WeatherDisplay:10.36,2013-08-15 20:56:00,
2013-08-15 17:02:00,77.0,48.7,30.01,SSW,211,0.0,0.0,37,0.00,CLR,CLR,0.00,WeatherDisplay:10.36,2013-08-15 21:02:00,
2013-08-15 17:08:00,76.8,49.3,30.01,SSW,211,0.0,0.0,38,0.00,CLR,CLR,0.00,WeatherDisplay:10.36,2013-08-15 21:08:00,
2013-08-15 17:14:00,76.8,50.0,30.01,SW,215,1.2,1.2,39,0.00,CLR,CLR,0.00,WeatherDisplay:10.36,2013-08-15 21:14:00,
2013-08-15 17:19:00,77.0,48.0,30.01,WSW,247,0.0,0.0,36,0.00,CLR,CLR,0.00,WeatherDisplay:10.36,2013-08-15 21:19:00,
2013-08-15 17:24:00,77.0,49.4,30.01,SSW,203,0.0,0.0,38,0.00,CLR,CLR,0.00,WeatherDisplay:10.36,2013-08-15 21:24:00,
2013-08-15 17:29:00,77.2,48.2,30.01,SSW,203,2.3,2.3,36,0.00,CLR,CLR,0.00,WeatherDisplay:10.36,2013-08-15 21:29:00,
2013-08-15 17:34:00,77.6,48.5,30.01,SW,217,2.3,0.0,36,0.00,CLR,CLR,0.00,WeatherDisplay:10.36,2013-08-15 21:34:00,
2013-08-15 17:39:00,77.7,49.3,30.00,SSW,213,0.0,0.0,37,0.00,CLR,CLR,0.00,WeatherDisplay:10.36,2013-08-15 21:39:00,
2013-08-15 17:44:00,77.9,47.3,30.00,SW,214,1.2,1.2,34,0.00,CLR,CLR,0.00,WeatherDisplay:10.36,2013-08-15 21:44:00,
2013-08-15 17:49:00,77.6,49.3,30.00,SW,235,0.0,0.0,37,0.00,CLR,CLR,0.00,WeatherDisplay:10.36,2013-08-15 21:49:00,
2013-08-15 17:55:00,77.4,47.6,30.00,SW,217,2.3,0.0,35,0.00,CLR,CLR,0.00,WeatherDisplay:10.36,2013-08-15 21:55:00,
2013-08-15 18:00:00,77.2,48.2,30.00,SW,220,0.0,1.0,36,0.00,CLR,CLR,0.00,WeatherDisplay:10.36,2013-08-15 22:00:00,
2013-08-15 18:05:00,77.4,48.3,30.01,SW,216,0.0,0.0,36,0.00,CLR,CLR,0.00,WeatherDisplay:10.36,2013-08-15 22:05:00,
2013-08-15 18:10:00,77.7,47.9,30.01,SW,221,0.0,1.0,35,0.00,CLR,CLR,0.00,WeatherDisplay:10.36,2013-08-15 22:10:00,
2013-08-15 18:15:00,77.6,49.3,30.01,SSW,192,0.0,0.0,37,0.00,CLR,CLR,0.00,WeatherDisplay:10.36,2013-08-15 22:15:00,
2013-08-15 18:20:00,77.2,48.2,30.01,SSW,192,0.0,0.0,36,0.00,CLR,CLR,0.00,WeatherDisplay:10.36,2013-08-15 22:20:00,
2013-08-15 18:26:00,76.7,49.9,30.01,SSW,193,0.0,0.0,39,0.00,CLR,CLR,0.00,WeatherDisplay:10.36,2013-08-15 22:26:00,
2013-08-15 18:31:00,76.0,47.8,30.01,SW,219,3.0,3.0,37,0.00,CLR,CLR,0.00,WeatherDisplay:10.36,2013-08-15 22:31:00,
2013-08-15 18:36:00,75.3,49.3,30.01,SW,219,1.2,0.0,40,0.00,CLR,CLR,0.00,WeatherDisplay:10.36,2013-08-15 22:36:00,
2013-08-15 18:42:00,74.7,48.8,30.01,WSW,241,1.2,1.2,40,0.00,CLR,CLR,0.00,WeatherDisplay:10.36,2013-08-15 22:42:00,
2013-08-15 18:47:00,74.6,50.6,30.01,WSW,241,0.0,0.0,43,0.00,CLR,CLR,0.00,WeatherDisplay:10.36,2013-08-15 22:47:00,
2013-08-15 18:52:00,74.2,49.6,30.01,WSW,241,0.0,0.0,42,0.00,CLR,CLR,0.00,WeatherDisplay:10.36,2013-08-15 22:52:00,
2013-08-15 18:57:00,74.0,50.7,30.01,WSW,241,0.0,0.0,44,0.00,CLR,CLR,0.00,WeatherDisplay:10.36,2013-08-15 22:57:00,
2013-08-15 19:02:00,74.0,50.7,30.02,WSW,241,0.0,0.0,44,0.00,CLR,CLR,0.00,WeatherDisplay:10.36,2013-08-15 23:02:00,
2013-08-15 19:08:00,73.9,51.2,30.02,WSW,241,0.0,0.0,45,0.00,CLR,CLR,0.00,WeatherDisplay:10.36,2013-08-15 23:08:00,
2013-08-15 19:13:00,73.7,51.0,30.02,WSW,241,0.0,0.0,45,0.00,CLR,CLR,0.00,WeatherDisplay:10.36,2013-08-15 23:13:00,
2013-08-15 19:18:00,73.3,51.3,30.02,WSW,241,0.0,0.0,46,0.00,CLR,CLR,0.00,WeatherDisplay:10.36,2013-08-15 23:18:00,
2013-08-15 19:23:00,73.0,51.6,30.02,WSW,241,0.0,0.0,47,0.00,CLR,CLR,0.00,WeatherDisplay:10.36,2013-08-15 23:23:00,
2013-08-15 19:28:00,72.7,52.4,30.02,WSW,241,0.0,0.0,49,0.00,CLR,CLR,0.00,WeatherDisplay:10.36,2013-08-15 23:28:00,
2013-08-15 19:33:00,72.1,53.0,30.02,WSW,241,0.0,0.0,51,0.00,CLR,CLR,0.00,WeatherDisplay:10.36,2013-08-15 23:33:00,
2013-08-15 19:38:00,71.6,54.1,30.03,WSW,241,0.0,0.0,54,0.00,CLR,CLR,0.00,WeatherDisplay:10.36,2013-08-15 23:38:00,
2013-08-15 19:44:00,71.3,53.3,30.03,WSW,241,0.0,0.0,53,0.00,CLR,CLR,0.00,WeatherDisplay:10.36,2013-08-15 23:44:00,
2013-08-15 19:49:00,70.9,53.4,30.03,WSW,241,0.0,0.0,54,0.00,CLR,CLR,0.00,WeatherDisplay:10.36,2013-08-15 23:49:00,
2013-08-15 19:54:00,70.8,53.3,30.03,WSW,241,0.0,0.0,54,0.00,CLR,CLR,0.00,WeatherDisplay:10.36,2013-08-15 23:54:00,
2013-08-15 19:59:00,70.4,53.0,30.03,WSW,241,0.0,0.0,54,0.00,CLR,CLR,0.00,WeatherDisplay:10.36,2013-08-15 23:59:00,
2013-08-15 20:05:00,70.1,53.7,30.04,WSW,241,0.0,0.0,56,0.00,CLR,CLR,0.00,WeatherDisplay:10.36,2013-08-16 00:05:00,
2013-08-15 20:10:00,69.8,53.4,30.04,WSW,241,0.0,0.0,56,0.00,CLR,CLR,0.00,WeatherDisplay:10.36,2013-08-16 00:10:00,
2013-08-15 20:15:00,69.3,53.9,30.04,WSW,241,0.0,0.0,58,0.00,CLR,CLR,0.00,WeatherDisplay:10.36,2013-08-16 00:15:00,
2013-08-15 20:20:00,68.9,53.9,30.04,WSW,241,0.0,0.0,59,0.00,CLR,CLR,0.00,WeatherDisplay:10.36,2013-08-16 00:20:00,
2013-08-15 20:25:00,68.4,53.5,30.05,WSW,241,0.0,0.0,59,0.00,CLR,CLR,0.00,WeatherDisplay:10.36,2013-08-16 00:25:00,
2013-08-15 20:30:00,68.1,54.1,30.05,WSW,241,0.0,0.0,61,0.00,CLR,CLR,0.00,WeatherDisplay:10.36,2013-08-16 00:30:00,
2013-08-15 20:36:00,67.8,54.3,30.05,WSW,241,0.0,0.0,62,0.00,CLR,CLR,0.00,WeatherDisplay:10.36,2013-08-16 00:36:00,
2013-08-15 20:41:00,67.6,54.6,30.06,WSW,241,0.0,0.0,63,0.00,CLR,CLR,0.00,WeatherDisplay:10.36,2013-08-16 00:41:00,
2013-08-15 20:46:00,67.3,55.1,30.06,WSW,241,0.0,0.0,65,0.00,CLR,CLR,0.00,WeatherDisplay:10.36,2013-08-16 00:46:00,
2013-08-15 20:51:00,66.8,54.7,30.06,WSW,241,0.0,0.0,65,0.00,CLR,CLR,0.00,WeatherDisplay:10.36,2013-08-16 00:51:00,
2013-08-15 20:57:00,66.4,54.7,30.05,WSW,241,0.0,0.0,66,0.00,CLR,CLR,0.00,WeatherDisplay:10.36,2013-08-16 00:57:00,
2013-08-15 21:02:00,66.1,54.8,30.05,WSW,241,0.0,0.0,67,0.00,CLR,CLR,0.00,WeatherDisplay:10.36,2013-08-16 01:02:00,
2013-08-15 21:07:00,66.0,54.7,30.06,WSW,241,0.0,0.0,67,0.00,CLR,CLR,0.00,WeatherDisplay:10.36,2013-08-16 01:07:00,
2013-08-15 21:12:00,65.6,54.8,30.06,WSW,241,0.0,0.0,68,0.00,CLR,CLR,0.00,WeatherDisplay:10.36,2013-08-16 01:12:00,
2013-08-15 21:17:00,65.5,54.7,30.06,WSW,241,0.0,0.0,68,0.00,CLR,CLR,0.00,WeatherDisplay:10.36,2013-08-16 01:17:00,
2013-08-15 21:22:00,65.2,55.2,30.06,WSW,241,0.0,0.0,70,0.00,CLR,CLR,0.00,WeatherDisplay:10.36,2013-08-16 01:22:00,
2013-08-15 21:28:00,64.7,55.1,30.06,WSW,241,0.0,0.0,71,0.00,CLR,CLR,0.00,WeatherDisplay:10.36,2013-08-16 01:28:00,
2013-08-15 21:33:00,64.3,55.5,30.07,WSW,241,0.0,0.0,73,0.00,CLR,CLR,0.00,WeatherDisplay:10.36,2013-08-16 01:33:00,
2013-08-15 21:38:00,64.0,55.5,30.07,WSW,241,0.0,0.0,74,0.00,CLR,CLR,0.00,WeatherDisplay:10.36,2013-08-16 01:38:00,
2013-08-15 21:43:00,63.5,55.4,30.07,WSW,241,0.0,0.0,75,0.00,CLR,CLR,0.00,WeatherDisplay:10.36,2013-08-16 01:43:00,
2013-08-15 21:49:00,63.2,55.5,30.07,WSW,241,0.0,0.0,76,0.00,CLR,CLR,0.00,WeatherDisplay:10.36,2013-08-16 01:49:00,
2013-08-15 21:54:00,63.1,55.4,30.07,WSW,241,0.0,0.0,76,0.00,CLR,CLR,0.00,WeatherDisplay:10.36,2013-08-16 01:54:00,
2013-08-15 21:59:00,62.9,55.6,30.07,WSW,241,0.0,0.0,77,0.00,CLR,CLR,0.00,WeatherDisplay:10.36,2013-08-16 01:59:00,
2013-08-15 22:04:00,62.9,55.6,30.07,WSW,241,0.0,0.0,77,0.00,CLR,CLR,0.00,WeatherDisplay:10.36,2013-08-16 02:04:00,
2013-08-15 22:09:00,62.6,55.6,30.07,WSW,241,0.0,0.0,78,0.00,CLR,CLR,0.00,WeatherDisplay:10.36,2013-08-16 02:09:00,
2013-08-15 22:15:00,62.4,55.4,30.07,WSW,241,0.0,0.0,78,0.00,CLR,CLR,0.00,WeatherDisplay:10.36,2013-08-16 02:15:00,
2013-08-15 22:20:00,62.1,55.5,30.07,WSW,241,0.0,0.0,79,0.00,CLR,CLR,0.00,WeatherDisplay:10.36,2013-08-16 02:20:00,
2013-08-15 22:25:00,61.8,55.6,30.07,WSW,241,0.0,0.0,80,0.00,CLR,CLR,0.00,WeatherDisplay:10.36,2013-08-16 02:25:00,
2013-08-15 22:30:00,61.6,55.7,30.07,WSW,241,0.0,0.0,81,0.00,CLR,CLR,0.00,WeatherDisplay:10.36,2013-08-16 02:30:00,
2013-08-15 22:35:00,61.5,56.0,30.07,WSW,241,0.0,0.0,82,0.00,CLR,CLR,0.00,WeatherDisplay:10.36,2013-08-16 02:35:00,
2013-08-15 22:40:00,61.5,56.3,30.08,WSW,241,0.0,0.0,83,0.00,CLR,CLR,0.00,WeatherDisplay:10.36,2013-08-16 02:40:00,
2013-08-15 22:46:00,61.3,55.8,30.08,WSW,241,0.0,0.0,82,0.00,CLR,CLR,0.00,WeatherDisplay:10.36,2013-08-16 02:46:00,
2013-08-15 22:51:00,61.2,55.7,30.08,WSW,241,0.0,0.0,82,0.00,CLR,CLR,0.00,WeatherDisplay:10.36,2013-08-16 02:51:00,
2013-08-15 22:56:00,61.0,55.8,30.08,WSW,241,0.0,0.0,83,0.00,CLR,CLR,0.00,WeatherDisplay:10.36,2013-08-16 02:56:00,
2013-08-15 23:02:00,60.9,55.7,30.08,WSW,241,0.0,0.0,83,0.00,CLR,CLR,0.00,WeatherDisplay:10.36,2013-08-16 03:02:00,
2013-08-15 23:07:00,60.5,55.6,30.08,WSW,241,0.0,0.0,84,0.00,CLR,CLR,0.00,WeatherDisplay:10.36,2013-08-16 03:07:00,
2013-08-15 23:12:00,60.4,55.5,30.08,WSW,241,0.0,0.0,84,0.00,CLR,CLR,0.00,WeatherDisplay:10.36,2013-08-16 03:12:00,
2013-08-15 23:17:00,60.2,55.3,30.08,WSW,241,0.0,0.0,84,0.00,CLR,CLR,0.00,WeatherDisplay:10.36,2013-08-16 03:17:00,
2013-08-15 23:23:00,60.2,55.7,30.08,WSW,241,0.0,0.0,85,0.00,CLR,CLR,0.00,WeatherDisplay:10.36,2013-08-16 03:23:00,
2013-08-15 23:28:00,60.1,55.6,30.08,WSW,241,0.0,0.0,85,0.00,CLR,CLR,0.00,WeatherDisplay:10.36,2013-08-16 03:28:00,
2013-08-15 23:33:00,60.1,55.6,30.08,WSW,241,0.0,0.0,85,0.00,CLR,CLR,0.00,WeatherDisplay:10.36,2013-08-16 03:33:00,
2013-08-15 23:38:00,59.9,55.4,30.08,WSW,241,0.0,0.0,85,0.00,CLR,CLR,0.00,WeatherDisplay:10.36,2013-08-16 03:38:00,
2013-08-15 23:43:00,59.9,55.7,30.08,WSW,241,0.0,0.0,86,0.00,CLR,CLR,0.00,WeatherDisplay:10.36,2013-08-16 03:43:00,
2013-08-15 23:48:00,59.8,55.6,30.08,WSW,241,0.0,0.0,86,0.00,CLR,CLR,0.00,WeatherDisplay:10.36,2013-08-16 03:48:00,
2013-08-15 23:53:00,59.6,55.4,30.09,WSW,241,0.0,0.0,86,0.00,CLR,CLR,0.00,WeatherDisplay:10.36,2013-08-16 03:53:00,
2013-08-15 23:58:00,59.5,55.3,30.08,WSW,241,0.0,0.0,86,0.00,CLR,CLR,0.00,WeatherDisplay:10.36,2013-08-16 03:58:00,